Theta_e
319 318 318 317 316 317 317 317 317 317 316 316 314 314 314 313 313 313 313 313 314 314 314 314 315 316 310 302 303 316 325 323 319 314 308 303 298 296 292 295 296 294 297 300 301 300 296
318 318 318 317 317 317 317 316 316 316 316 314 314 313 313 312 312 312 312 312 313 313 313 314 315 316 306 297 314 320 320 316 315 310 306 303 297 298 295 292 292 297 296 296 298 298 298
318 317 317 317 317 317 316 316 316 316 315 315 313 313 313 313 313 312 312 313 313 314 314 315 316 313 304 302 314 319 318 311 311 311 305 305 302 297 296 292 295 296 290 293 295 297 297
317 317 317 317 317 317 316 316 316 316 315 315 314 314 313 313 313 313 313 313 313 314 315 316 316 310 300 314 311 312 312 310 311 310 309 307 303 297 293 295 294 291 288 284 291 297 298
317 317 317 317 317 316 316 315 315 315 315 314 314 313 313 313 314 314 313 313 313 314 316 317 309 305 301 316 308 309 310 308 311 310 309 311 302 296 295 289 285 285 281 284 288 295 295
316 316 316 317 316 315 315 315 315 315 315 314 313 312 313 313 314 314 313 313 312 313 314 315 312 302 305 306 309 311 312 312 308 307 304 302 296 292 290 286 282 283 285 287 287 290 292
316 316 316 315 316 315 315 315 314 314 314 314 313 312 312 313 313 313 307 307 299 299 306 303 303 305 307 312 313 310 314 311 309 304 295 299 292 287 291 294 293 292 291 289 292 293 290
315 315 315 316 316 315 314 314 314 314 314 313 312 312 312 312 312 312 305 305 308 305 298 307 308 308 311 311 306 309 313 304 302 296 299 296 291 298 299 297 296 295 291 290 293 294 291
315 315 315 315 315 314 314 313 313 313 313 312 311 311 312 312 311 305 305 310 313 308 296 304 309 305 301 305 304 305 309 305 300 297 296 293 296 301 299 295 293 293 290 289 290 294 295
315 315 315 314 313 314 314 313 313 313 312 311 311 311 311 310 305 305 304 307 313 310 293 298 298 301 303 303 302 311 312 305 300 296 297 294 300 299 297 295 295 289 296 293 292 290 283
315 315 314 313 313 313 313 312 312 312 312 311 310 311 311 309 302 302 305 306 309 308 277 298 298 305 303 300 304 304 311 306 297 297 296 293 295 295 294 296 298 292 297 295 294 290 287
315 315 314 314 314 313 312 311 311 311 311 310 310 310 310 307 303 307 308 307 308 288 279 294 298 296 296 299 299 302 306 305 304 297 296 295 299 296 296 300 300 300 296 294 293 288 281
316 315 315 315 314 313 312 311 311 311 310 310 309 310 307 309 302 305 305 304 290 280 295 291 293 296 294 295 296 297 296 294 291 285 287 292 292 298 301 295 297 294 290 283 280 281 277
315 315 315 315 314 313 311 310 310 310 310 308 307 308 308 309 307 307 303 292 282 291 291 298 296 295 292 295 294 294 294 290 295 291 286 285 284 294 299 296 294 294 290 283 276 278 280
316 315 315 315 314 313 312 310 310 309 309 307 306 305 309 312 307 305 296 285 285 291 296 295 294 290 290 294 293 291 291 291 294 292 286 287 288 298 299 300 298 293 288 294 285 287 282
315 315 315 315 314 313 312 311 310 309 308 306 298 304 306 306 307 302 292 290 291 299 300 297 288 292 287 290 290 289 290 297 295 296 294 291 286 296 299 300 301 296 298 288 287 281 280
315 315 315 314 314 313 312 311 310 309 307 305 302 301 306 306 304 297 288 290 296 301 300 295 291 290 291 290 290 289 291 296 299 296 295 294 292 291 296 294 292 293 293 293 290 288 284
315 315 315 315 314 313 312 311 310 308 305 300 296 293 306 306 294 290 289 295 299 298 301 299 296 293 292 292 289 290 291 295 301 297 291 295 290 288 290 297 301 298 296 295 288 286 287
314 315 314 314 314 313 312 311 310 308 305 295 293 295 305 303 287 289 294 298 300 297 295 295 294 296 295 291 287 292 294 300 300 296 292 294 287 286 287 293 297 294 296 297 296 293 288
314 314 314 314 314 313 312 311 310 308 307 297 295 291 294 294 294 291 290 293 293 298 297 297 295 295 292 289 292 291 292 298 300 298 304 299 289 290 282 288 294 292 297 299 295 288 289
314 314 315 315 315 314 313 311 310 308 307 299 295 290 292 286 290 290 291 293 291 290 295 295 293 294 291 287 289 290 293 295 300 302 297 295 288 290 292 295 297 295 294 297 294 295 289
313 314 314 315 315 315 313 312 310 308 306 301 294 292 293 290 292 292 290 289 291 292 291 292 290 294 292 287 290 289 292 293 294 296 294 294 286 291 291 296 298 294 296 299 299 298 298
311 311 312 313 314 314 314 312 310 308 304 294 297 298 293 291 291 289 288 291 293 292 294 296 295 292 292 294 296 297 297 298 298 296 294 295 293 289 285 293 295 291 294 298 299 299 299
309 310 310 311 312 314 314 314 311 309 304 296 295 295 290 287 290 291 293 294 293 292 291 294 297 293 298 302 300 298 297 297 299 299 300 295 290 292 286 289 284 295 301 300 299 299 300
308 308 309 309 310 312 314 314 312 309 309 299 300 295 291 286 291 292 294 293 293 293 291 293 298 299 299 298 292 289 289 292 295 300 297 295 294 290 286 287 292 296 297 296 295 296 300
307 307 308 308 309 310 312 313 314 311 309 304 300 301 299 288 289 295 292 293 290 285 289 294 297 299 298 293 290 284 279 291 291 292 295 295 298 292 290 285 282 293 299 303 302 292 301
305 305 306 307 307 309 310 312 313 313 309 305 302 303 300 294 293 294 291 291 293 289 287 290 293 295 296 289 287 284 284 293 284 285 287 287 289 289 289 287 292 299 301 304 289 291 302
304 304 305 305 306 307 308 310 312 313 310 307 302 304 301 296 295 298 299 293 292 291 286 289 290 294 291 287 287 286 284 287 285 291 289 291 288 285 287 286 284 302 300 293 297 300 304
306 304 304 304 305 305 307 309 311 312 312 309 300 303 304 298 295 299 301 302 301 299 291 290 290 291 294 289 289 288 285 287 286 283 295 288 291 289 290 288 297 304 302 304 301 299 301
Wind_Speed
20 21 20 20 20 20 20 21 21 21 20 20 21 21 19 17 15 14 13 12 12 12 12 13 13 14 6 3 6 6 11 10 4 3 3 3 4 5 5 8 11 4 5 11 12 11 7
21 21 20 19 19 19 20 20 21 21 21 22 22 21 20 17 15 14 12 12 10 10 10 10 11 11 2 3 3 9 10 4 8 4 5 2 2 5 6 4 4 6 11 14 10 14 9
21 20 20 19 19 20 20 20 21 21 21 21 23 21 20 17 15 13 12 11 9 9 9 9 8 4 2 9 3 9 9 7 4 5 2 1 1 4 6 8 5 10 11 11 13 6 8
22 21 21 20 21 21 21 22 23 23 22 22 21 20 20 18 16 13 12 11 12 9 8 8 4 2 7 7 2 6 8 9 6 2 4 6 3 3 3 4 8 8 5 6 2 7 8
22 21 21 21 21 22 22 22 22 24 23 22 21 20 20 18 16 13 11 10 11 8 6 6 1 2 9 7 4 9 8 6 4 3 3 7 4 5 3 3 6 4 6 9 11 6 7
22 23 23 22 23 23 22 22 22 23 24 24 22 21 18 17 15 13 12 10 2 5 3 4 5 3 6 2 5 5 7 7 5 2 4 3 1 3 2 4 8 9 14 14 17 5 7
22 22 24 24 24 24 23 23 23 24 25 25 24 22 19 16 13 10 7 3 4 2 2 7 6 5 13 9 3 5 3 2 2 1 3 5 2 8 14 13 14 11 16 17 14 8 5
21 22 22 25 25 23 24 23 23 24 25 25 25 23 20 17 13 6 1 1 5 5 9 10 16 11 16 10 3 1 3 2 1 7 2 5 12 16 14 17 10 12 18 24 17 6 5
22 23 24 25 23 23 23 24 24 24 26 26 25 23 23 21 12 2 2 6 6 4 2 9 5 3 6 1 4 6 7 4 4 5 7 9 14 15 6 1 5 10 11 16 18 11 11
22 22 24 24 24 23 24 25 25 25 26 28 26 22 20 25 3 3 6 5 3 6 5 5 6 6 9 7 4 2 6 4 1 5 6 10 10 9 13 13 11 14 11 18 18 8 10
21 21 24 24 24 24 24 25 26 26 27 28 28 23 18 9 2 4 7 7 1 6 6 9 7 7 13 9 6 7 6 3 3 5 0 12 17 12 14 12 10 15 13 14 16 11 4
21 21 22 22 23 25 25 26 28 28 28 31 29 23 12 4 0 9 7 8 6 8 3 6 11 16 17 10 11 11 4 8 3 5 6 20 14 10 9 13 14 2 6 6 5 4 9
14 16 19 21 23 25 27 28 30 31 31 34 32 23 4 1 5 4 6 5 7 7 6 9 14 17 9 17 14 15 3 6 3 9 15 14 5 5 2 6 4 4 3 3 3 3 6
15 16 18 20 22 23 25 28 30 32 33 37 34 19 4 5 6 4 5 8 10 4 5 5 9 13 7 15 10 17 1 2 2 2 5 7 11 6 11 5 5 4 3 3 6 3 4
14 16 17 19 20 22 24 25 28 32 33 35 23 5 4 6 5 4 8 7 2 4 5 7 8 5 5 17 7 9 6 1 2 2 1 6 8 9 14 12 7 4 5 3 5 3 4
14 15 16 17 19 21 23 25 27 31 35 31 4 5 5 8 4 7 8 2 2 1 1 3 6 5 12 15 11 13 6 3 2 4 4 4 10 9 14 3 3 4 6 2 2 4 4
14 15 16 16 17 20 21 25 27 29 34 27 4 5 6 8 6 8 4 4 5 3 3 2 3 5 8 7 11 9 6 4 3 4 5 4 5 13 10 3 10 2 2 1 4 2 4
13 14 15 15 16 18 19 21 24 25 29 11 4 4 5 5 7 2 3 6 5 4 1 1 4 4 3 10 5 7 6 4 1 2 5 2 3 9 18 16 8 4 3 2 3 3 3
13 13 14 14 14 15 19 19 23 20 13 4 4 4 4 8 5 5 6 8 4 5 4 5 3 2 2 5 6 5 6 10 13 1 2 3 2 9 13 5 4 6 17 7 6 1 3
15 14 14 14 14 14 16 18 21 25 14 4 3 6 7 6 2 2 4 5 7 6 4 8 4 4 4 3 3 7 8 8 16 8 7 4 3 6 5 14 16 15 20 2 4 3 7
13 15 15 15 13 13 13 16 18 23 25 3 3 3 1 6 7 7 2 2 5 8 4 5 5 4 4 4 5 3 10 10 10 3 5 6 4 6 13 17 9 13 20 18 10 5 2
13 14 15 15 15 14 12 12 13 19 25 5 3 4 5 5 6 5 4 5 5 8 3 6 5 14 3 2 7 13 11 3 6 5 5 3 3 6 16 5 11 14 16 10 6 13 4
14 16 16 16 15 14 12 10 10 13 11 4 4 4 4 5 5 4 2 7 8 7 8 6 9 7 5 5 7 13 12 14 13 11 1 4 3 6 7 15 7 4 8 10 11 17 13
14 15 15 15 14 14 13 9 6 6 6 2 3 1 2 5 2 4 11 11 10 8 7 13 6 4 7 9 10 6 5 9 10 11 6 4 5 2 7 11 5 4 11 14 17 15 17
14 15 15 16 16 14 14 11 6 3 0 2 2 2 1 5 2 13 10 9 9 12 6 7 4 5 9 5 4 6 6 6 1 2 2 3 2 4 3 5 5 2 9 12 8 6 15
15 15 15 15 15 16 14 13 9 8 6 2 3 3 1 1 5 4 10 3 8 5 6 6 8 8 4 3 2 1 3 3 4 8 1 5 3 3 2 4 3 5 14 16 2 3 14
15 15 15 16 16 16 16 14 13 9 9 4 3 2 1 3 6 1 3 5 4 3 4 6 9 8 4 4 2 1 3 3 2 4 5 5 3 2 2 2 1 10 16 12 5 8 17
15 15 14 15 16 16 16 15 14 12 12 5 4 3 4 4 8 6 5 5 5 1 3 6 8 4 4 5 2 3 1 4 3 4 4 2 4 2 3 1 2 5 8 6 6 6 9
14 16 16 15 16 17 16 14 13 14 10 12 4 3 3 4 8 5 10 17 16 21 4 4 4 1 3 0 2 2 3 3 2 4 4 3 6 3 3 6 5 4 3 7 4 5 6
Wind_Direction
22 21 16 10 2 357 354 351 347 344 343 341 343 340 339 335 330 327 324 323 319 319 322 327 328 328 352 9 252 191 197 225 225 230 260 308 355 353 324 307 318 282 305 309 293 286 266
21 19 10 1 358 356 354 350 346 344 344 346 346 344 341 336 330 325 321 317 311 309 313 324 327 328 357 25 215 180 199 205 242 182 252 70 322 290 277 311 325 298 310 307 302 301 286
17 14 6 359 355 355 353 351 346 345 345 347 350 345 339 337 329 323 315 308 299 300 308 315 321 318 333 227 216 191 183 216 210 204 225 197 153 54 330 313 270 300 308 307 284 276 282
15 6 0 357 355 354 353 351 346 345 346 347 346 341 340 336 331 323 312 306 303 304 305 307 313 341 252 263 185 185 211 274 236 104 179 202 191 235 176 269 315 295 307 292 269 285 267
11 6 1 357 355 353 350 349 346 343 345 347 346 344 341 339 334 323 304 289 288 293 275 283 10 81 276 302 222 229 202 224 195 230 259 251 141 208 354 344 344 326 258 267 289 265 279
11 6 2 356 353 350 348 347 346 344 344 345 345 345 342 339 334 325 299 278 248 319 232 227 260 309 270 238 210 215 200 190 220 254 291 268 138 213 307 100 261 268 290 289 288 289 320
10 6 4 358 350 347 346 346 345 344 342 343 344 344 341 336 329 326 340 86 25 10 194 218 226 232 277 275 187 215 157 203 221 182 291 288 266 231 242 244 254 260 275 274 288 282 313
7 4 359 353 350 346 345 344 345 343 340 339 341 340 336 331 325 308 321 59 237 212 308 234 253 237 252 263 264 148 120 167 148 268 288 323 251 251 250 240 262 295 297 282 287 292 293
5 3 357 353 347 343 342 344 345 343 339 337 339 339 333 325 330 92 210 239 262 92 109 300 270 209 317 248 265 231 156 189 218 279 269 235 258 280 320 52 238 241 261 280 283 295 256
3 360 359 354 346 341 341 343 345 343 340 336 337 338 334 324 72 312 277 263 256 102 54 298 21 320 1 280 290 227 200 142 289 293 300 257 254 311 304 268 203 260 261 250 263 277 264
0 357 358 355 344 342 341 341 344 343 340 336 335 335 336 304 258 327 255 301 145 59 54 319 355 285 313 5 307 335 26 55 274 282 350 265 299 298 277 255 177 240 246 265 258 237 269
2 1 355 346 346 344 341 343 343 343 341 334 333 335 342 93 214 237 294 299 59 47 336 349 347 334 345 345 353 340 46 35 53 296 246 265 290 266 243 273 206 255 229 235 259 235 246
350 347 349 349 348 346 343 344 344 342 340 335 331 332 299 286 255 289 342 42 51 70 337 319 336 333 324 356 345 348 39 24 58 341 344 316 292 284 248 330 54 77 48 283 269 230 244
341 340 345 349 347 345 344 343 344 342 341 336 329 324 201 218 258 7 42 51 60 330 273 293 324 319 19 345 335 340 29 28 91 110 284 334 327 6 335 282 285 78 149 262 288 271 301
335 337 340 343 343 343 345 344 344 342 341 338 326 337 322 271 273 88 67 49 189 266 295 330 327 308 338 339 331 335 327 289 219 150 27 334 271 303 301 316 158 143 212 196 260 234 272
327 332 336 339 340 342 343 344 347 345 341 339 352 338 286 316 30 62 67 353 269 301 40 1 20 359 320 328 344 345 338 216 267 202 173 241 285 282 319 172 86 170 142 262 225 292 288
323 327 330 334 336 340 344 344 346 348 343 332 24 23 269 335 55 43 89 247 273 103 115 61 270 261 288 317 329 326 308 291 200 290 196 279 208 294 308 306 304 159 215 249 286 290 333
320 322 325 329 333 335 339 343 346 353 346 34 351 20 310 26 46 44 349 287 274 309 344 280 255 257 317 331 308 310 309 336 292 267 317 227 297 285 294 289 331 103 311 246 282 353 256
317 317 318 323 327 331 333 344 343 355 19 329 351 272 319 67 56 335 314 314 286 329 332 353 294 359 295 313 336 284 354 317 355 20 343 315 329 311 334 15 6 3 304 246 219 327 255
315 315 317 320 324 330 333 339 342 338 354 116 17 349 327 32 145 145 329 289 317 327 305 327 240 289 301 271 254 283 335 321 316 308 142 176 208 227 240 274 300 309 328 340 157 14 308
315 318 319 320 320 321 328 336 342 338 341 109 37 286 240 309 323 334 217 289 335 353 330 301 311 290 300 319 312 280 313 321 313 353 353 144 257 252 263 283 317 21 21 24 66 278 308
313 315 319 322 323 320 322 329 344 344 337 55 50 21 350 284 285 310 345 332 348 333 262 312 304 313 245 283 211 295 306 286 266 306 346 302 275 303 306 268 52 57 55 52 1 359 326
325 325 323 323 321 319 315 317 345 356 3 32 318 338 105 269 313 357 281 312 315 351 299 330 310 311 309 271 242 262 241 256 250 267 275 280 338 328 285 313 327 11 357 345 358 8 351
323 323 325 323 320 318 314 301 319 6 67 139 263 47 52 279 313 253 319 305 313 319 268 297 304 29 281 300 293 291 262 245 250 252 189 285 323 261 292 331 50 157 27 329 335 27 13
319 321 321 322 322 318 313 300 264 271 204 135 271 65 32 286 279 307 335 306 309 311 267 274 321 260 296 288 340 345 344 359 280 227 93 134 271 318 338 332 292 283 347 330 339 39 18
316 316 316 316 318 319 314 306 275 224 227 201 238 175 229 315 265 331 305 302 302 298 325 281 302 296 350 17 32 125 257 324 323 325 46 353 165 141 328 308 302 307 317 325 201 198 11
312 312 313 313 312 313 312 312 304 238 206 211 258 175 160 258 267 59 291 287 283 356 281 306 321 316 31 357 331 44 282 319 316 295 326 339 353 217 248 228 328 306 320 325 41 324 330
304 306 309 307 307 306 306 307 306 298 205 187 270 186 163 224 280 230 246 246 288 154 224 295 339 339 355 32 13 311 334 272 353 262 292 299 327 304 349 14 350 308 331 55 256 289 311
293 308 304 303 304 302 299 300 302 301 238 187 264 260 200 198 252 237 252 253 249 252 166 236 223 212 243 63 2 326 317 319 261 281 328 289 184 220 183 218 216 193 218 279 255 262 307